Location: Standeford and Andreas Observatories
(44.1397°N, 93.9969°W)
Time: 23:22:00
(UTC-05:00)

Cosmos 1500 Rocket - Visible Passes

Search period start: 04 August 2015 00:00
Search period end: 14 August 2015 00:00
Orbit: 605 x 632 km, 82.5° (Epoch: 04 August)

Date Brightness Start Highest point End Pass type
(mag) Time Alt. Az. Time Alt. Az. Time Alt. Az.
04 Aug 5.0 01:59:15 10° N 02:03:14 32° ENE 02:03:18 32° ENE visible
04 Aug 5.0 03:37:19 10° NW 03:40:25 24° WNW 03:40:25 24° WNW visible
05 Aug 4.2 02:16:04 10° N 02:20:00 53° NE 02:20:00 53° NE visible
05 Aug 5.7 03:55:29 10° NW 03:57:07 14° WNW 03:57:07 14° WNW visible
06 Aug 6.2 00:57:51 10° NE 00:59:01 11° ENE 00:59:36 11° ENE visible
06 Aug 4.1 02:33:07 10° N 02:36:43 56° NNW 02:36:43 56° NNW visible
07 Aug 5.7 01:13:21 10° NNE 01:16:20 19° ENE 01:16:20 19° ENE visible
07 Aug 4.7 02:50:24 10° NNW 02:53:27 35° NW 02:53:27 35° NW visible
08 Aug 5.2 01:29:50 10° N 01:33:06 30° NE 01:33:06 30° NE visible
08 Aug 5.4 03:07:59 10° NW 03:10:13 21° WNW 03:10:13 21° WNW visible
09 Aug 4.7 01:46:40 10° N 01:49:52 42° NNE 01:49:52 42° NNE visible
09 Aug 6.0 03:26:11 10° NW 03:26:59 12° WNW 03:26:59 12° WNW visible
10 Aug 6.2 00:28:19 10° NE 00:29:32 11° ENE 00:29:32 11° ENE visible
10 Aug 4.8 02:03:44 10° NNW 02:06:39 40° NNW 02:06:39 40° NNW visible
11 Aug 5.8 00:43:55 10° NNE 00:46:20 19° NE 00:46:20 19° NE visible
11 Aug 5.2 02:21:01 10° NNW 02:23:27 28° NW 02:23:27 28° NW visible
12 Aug 5.4 01:00:26 10° N 01:03:08 27° NE 01:03:08 27° NE visible
12 Aug 5.7 02:38:37 10° NW 02:40:16 18° NW 02:40:16 18° NW visible
13 Aug 5.1 01:17:16 10° N 01:19:58 34° NNE 01:19:58 34° NNE visible
13 Aug 6.2 02:56:53 10° NW 02:57:05 11° WNW 02:57:05 11° WNW visible
